| time (UTC) | temp F | wind direction | speed knots | gust knots | rain 1hr in | rain 24hr in | rain mn in | humidity % | barometer mb |
| 20260906095503 | 65 | 0 | 0.0 | 0.0 | 0.00 | 0.02 | 0.00 | 92 | 1015.4 |
| 20260906095003 | 65 | 0 | 0.0 | 0.0 | 0.00 | 0.02 | 0.00 | 92 | 1015.4 |
| 20260906094503 | 65 | 0 | 0.0 | 0.0 | 0.00 | 0.02 | 0.00 | 92 | 1015.3 |
| 20260906094003 | 65 | 0 | 0.0 | 0.0 | 0.00 | 0.02 | 0.00 | 92 | 1015.3 |
| 20260906093503 | 65 | 178 | 0.9 | 1.7 | 0.00 | 0.02 | 0.00 | 92 | 1015.4 |
| 20260906093003 | 65 | 215 | 0.9 | 1.7 | 0.00 | 0.02 | 0.00 | 92 | 1015.3 |
| 20260906092503 | 66 | 296 | 0.9 | 2.6 | 0.00 | 0.02 | 0.00 | 92 | 1015.4 |
| 20260906092024 | 66 | 285 | 0.9 | 2.6 | 0.00 | 0.02 | 0.00 | 92 | 1015.4 |
| 20260906091524 | 66 | 147 | 0.9 | 2.6 | 0.00 | 0.02 | 0.00 | 92 | 1015.4 |
| 20260906091045 | 66 | 141 | 0.9 | 2.6 | 0.00 | 0.02 | 0.00 | 92 | 1015.3 |
| 20260906090503 | 66 | 190 | 0.0 | 2.6 | 0.00 | 0.02 | 0.00 | 92 | 1015.1 |
| 20260906090003 | 66 | 0 | 0.0 | 0.0 | 0.00 | 0.02 | 0.00 | 92 | 1015.1 |
| 20260906085503 | 66 | 0 | 0.0 | 0.0 | 0.00 | 0.02 | 0.00 | 92 | 1015.2 |
| 20260906085003 | 66 | 0 | 0.0 | 0.0 | 0.00 | 0.02 | 0.00 | 93 | 1015.3 |
| 20260906084503 | 66 | 248 | 0.0 | 1.7 | 0.00 | 0.02 | 0.00 | 93 | 1015.2 |
| 20260906084003 | 65 | 248 | 0.0 | 2.6 | 0.00 | 0.02 | 0.00 | 94 | 1015.1 |
| 20260906083503 | 65 | 248 | 0.0 | 2.6 | 0.00 | 0.02 | 0.00 | 94 | 1015.0 |
| 20260906083024 | 65 | 0 | 0.0 | 0.0 | 0.00 | 0.02 | 0.00 | 94 | 1015.0 |
| 20260906082503 | 65 | 0 | 0.0 | 0.0 | 0.00 | 0.02 | 0.00 | 93 | 1015.1 |
| 20260906082024 | 65 | 0 | 0.0 | 0.0 | 0.00 | 0.02 | 0.00 | 94 | 1015.2 |
| 20260906081503 | 65 | 0 | 0.0 | 0.0 | 0.00 | 0.02 | 0.00 | 94 | 1015.1 |
| 20260906080524 | 64 | 0 | 0.0 | 0.0 | 0.00 | 0.02 | 0.00 | 93 | 1015.2 |
| 20260906080003 | 64 | 0 | 0.0 | 0.0 | 0.00 | 0.02 | 0.00 | 93 | 1015.3 |
| 20260906075503 | 64 | 0 | 0.0 | 0.0 | 0.00 | 0.02 | 0.00 | 93 | 1015.3 |
| 20260906075003 | 64 | 0 | 0.0 | 0.0 | 0.00 | 0.02 | 0.00 | 93 | 1015.2 |
| 20260906074503 | 64 | 0 | 0.0 | 0.0 | 0.00 | 0.02 | 0.00 | 93 | 1015.3 |
| 20260906074003 | 64 | 0 | 0.0 | 0.0 | 0.00 | 0.02 | 0.00 | 93 | 1015.3 |
| 20260906073503 | 64 | 0 | 0.0 | 0.0 | 0.00 | 0.02 | 0.00 | 93 | 1015.5 |
| 20260906073003 | 65 | 0 | 0.0 | 0.0 | 0.00 | 0.02 | 0.00 | 93 | 1015.6 |
| 20260906072503 | 65 | 0 | 0.0 | 0.0 | 0.00 | 0.02 | 0.00 | 93 | 1015.5 |
| 20260906072045 | 65 | 0 | 0.0 | 0.0 | 0.00 | 0.02 | 0.00 | 92 | 1015.6 |
| 20260906071503 | 65 | 0 | 0.0 | 0.0 | 0.00 | 0.02 | 0.00 | 92 | 1015.4 |
| 20260906071003 | 65 | 0 | 0.0 | 0.0 | 0.00 | 0.02 | 0.00 | 93 | 1015.3 |
| 20260906070503 | 65 | 0 | 0.0 | 0.0 | 0.00 | 0.02 | 0.00 | 92 | 1015.4 |
| 20260906070024 | 65 | 0 | 0.0 | 0.0 | 0.00 | 0.02 | 0.00 | 92 | 1015.3 |
| 20260906065503 | 65 | 0 | 0.0 | 0.0 | 0.00 | 0.02 | 0.00 | 93 | 1015.4 |
| 20260906065003 | 65 | 0 | 0.0 | 0.0 | 0.00 | 0.02 | 0.00 | 93 | 1015.5 |
| 20260906064503 | 65 | 202 | 0.0 | 1.7 | 0.00 | 0.02 | 0.00 | 93 | 1015.7 |
| 20260906064024 | 65 | 202 | 0.0 | 1.7 | 0.00 | 0.02 | 0.00 | 92 | 1015.7 |
| 20260906063545 | 65 | 196 | 0.0 | 0.9 | 0.00 | 0.02 | 0.00 | 92 | 1016.1 |
| 20260906063003 | 65 | 196 | 0.0 | 0.9 | 0.00 | 0.02 | 0.00 | 92 | 1016.1 |
| 20260906062503 | 65 | 0 | 0.0 | 0.0 | 0.00 | 0.02 | 0.00 | 92 | 1016.1 |
| 20260906062003 | 65 | 0 | 0.0 | 0.0 | 0.00 | 0.02 | 0.00 | 92 | 1016.1 |
| 20260906061503 | 65 | 0 | 0.0 | 0.0 | 0.00 | 0.02 | 0.00 | 92 | 1016.1 |
| 20260906061003 | 65 | 0 | 0.0 | 0.0 | 0.00 | 0.02 | 0.00 | 92 | 1016.1 |
| 20260906060503 | 65 | 0 | 0.0 | 0.0 | 0.00 | 0.02 | 0.00 | 92 | 1016.2 |
| 20260906060003 | 65 | 217 | 0.0 | 2.6 | 0.00 | 0.02 | 0.00 | 92 | 1016.3 |
| 20260906055503 | 65 | 217 | 0.0 | 2.6 | 0.00 | 0.02 | 0.00 | 92 | 1016.3 |
| 20260906055003 | 65 | 269 | 0.0 | 0.9 | 0.00 | 0.02 | 0.00 | 91 | 1016.4 |
| 20260906054503 | 65 | 269 | 0.0 | 0.9 | 0.00 | 0.02 | 0.00 | 91 | 1016.5 |
| 20260906054024 | 65 | 269 | 0.0 | 0.9 | 0.00 | 0.02 | 0.00 | 91 | 1016.5 |
| 20260906053503 | 66 | 0 | 0.0 | 0.0 | 0.00 | 0.02 | 0.00 | 91 | 1016.5 |
| 20260906053003 | 66 | 269 | 0.0 | 0.9 | 0.00 | 0.02 | 0.00 | 91 | 1016.4 |
| 20260906052503 | 66 | 269 | 0.0 | 0.9 | 0.00 | 0.02 | 0.00 | 91 | 1016.4 |
| 20260906052003 | 66 | 269 | 0.9 | 1.7 | 0.00 | 0.02 | 0.00 | 91 | 1016.5 |
| 20260906051503 | 66 | 269 | 0.9 | 1.7 | 0.00 | 0.02 | 0.00 | 90 | 1016.4 |
| 20260906051003 | 66 | 269 | 0.0 | 1.7 | 0.00 | 0.02 | 0.00 | 90 | 1016.4 |
| 20260906050503 | 66 | 0 | 0.0 | 0.0 | 0.00 | 0.02 | 0.00 | 90 | 1016.4 |
| 20260906050003 | 66 | 0 | 0.0 | 0.0 | 0.00 | 0.02 | 0.00 | 89 | 1016.5 |
| 20260906045524 | 66 | 0 | 0.0 | 0.0 | 0.00 | 0.02 | 0.00 | 89 | 1016.6 |
| 20260906045003 | 66 | 264 | 0.0 | 0.9 | 0.00 | 0.02 | 0.00 | 89 | 1016.6 |
| 20260906044524 | 66 | 264 | 0.0 | 0.9 | 0.00 | 0.02 | 0.00 | 89 | 1016.6 |
| 20260906044003 | 66 | 265 | 0.0 | 1.7 | 0.00 | 0.02 | 0.00 | 89 | 1016.7 |
| 20260906043503 | 66 | 265 | 0.0 | 1.7 | 0.00 | 0.02 | 0.00 | 89 | 1016.7 |
| 20260906043003 | 67 | 265 | 0.0 | 1.7 | 0.00 | 0.02 | 0.00 | 88 | 1016.8 |
| 20260906042503 | 67 | 278 | 1.7 | 5.2 | 0.00 | 0.02 | 0.00 | 89 | 1016.8 |
| 20260906042018 | 67 | 280 | 1.7 | 5.2 | 0.00 | 0.02 | 0.00 | 89 | 1016.7 |
| 20260906041503 | 67 | 270 | 1.7 | 5.2 | 0.00 | 0.02 | 0.00 | 90 | 1016.8 |
| 20260906041003 | 67 | 244 | 0.9 | 2.6 | 0.00 | 0.02 | 0.00 | 90 | 1016.8 |
| 20260906040503 | 67 | 177 | 0.0 | 1.7 | 0.00 | 0.02 | 0.00 | 89 | 1016.9 |
| 20260906040003 | 67 | 0 | 0.0 | 0.0 | 0.00 | 0.02 | 0.00 | 89 | 1016.9 |
| 20260906035503 | 67 | 0 | 0.0 | 0.0 | 0.00 | 0.02 | 0.02 | 88 | 1016.9 |
| 20260906035018 | 67 | 177 | 0.0 | 1.7 | 0.00 | 0.02 | 0.02 | 88 | 1016.8 |
| 20260906034503 | 67 | 177 | 0.0 | 1.7 | 0.00 | 0.02 | 0.02 | 88 | 1016.8 |
| 20260906034010 | 67 | 177 | 0.0 | 0.9 | 0.00 | 0.02 | 0.02 | 89 | 1016.8 |
| 20260906033503 | 67 | 177 | 0.9 | 2.6 | 0.00 | 0.02 | 0.02 | 89 | 1016.9 |
| 20260906033003 | 67 | 177 | 1.7 | 2.6 | 0.00 | 0.02 | 0.02 | 89 | 1016.8 |
| 20260906032503 | 67 | 183 | 1.7 | 3.5 | 0.00 | 0.02 | 0.02 | 89 | 1016.7 |
| 20260906032003 | 68 | 182 | 0.9 | 3.5 | 0.00 | 0.02 | 0.02 | 88 | 1016.6 |
| 20260906031503 | 68 | 164 | 0.0 | 1.7 | 0.00 | 0.02 | 0.02 | 88 | 1016.6 |
| 20260906031003 | 68 | 164 | 0.9 | 1.7 | 0.00 | 0.02 | 0.02 | 87 | 1016.6 |
| 20260906030503 | 68 | 164 | 0.9 | 1.7 | 0.00 | 0.02 | 0.02 | 87 | 1016.7 |
| 20260906030003 | 68 | 164 | 0.9 | 1.7 | 0.00 | 0.02 | 0.02 | 87 | 1016.8 |
| 20260906025503 | 68 | 164 | 0.9 | 3.5 | 0.00 | 0.02 | 0.02 | 86 | 1016.9 |
| 20260906025003 | 68 | 160 | 0.9 | 3.5 | 0.00 | 0.02 | 0.02 | 86 | 1017.0 |
| 20260906024503 | 68 | 152 | 1.7 | 3.5 | 0.00 | 0.02 | 0.02 | 85 | 1016.9 |
| 20260906024003 | 69 | 152 | 1.7 | 2.6 | 0.00 | 0.02 | 0.02 | 84 | 1016.7 |
| 20260906023503 | 69 | 174 | 0.9 | 2.6 | 0.00 | 0.02 | 0.02 | 83 | 1016.7 |
| 20260906023003 | 69 | 277 | 0.0 | 2.6 | 0.00 | 0.02 | 0.02 | 83 | 1016.7 |
| 20260906022503 | 70 | 316 | 0.0 | 1.7 | 0.00 | 0.02 | 0.02 | 82 | 1016.7 |
| 20260906022003 | 70 | 316 | 0.0 | 1.7 | 0.00 | 0.02 | 0.02 | 81 | 1016.7 |
| 20260906021503 | 70 | 316 | 0.0 | 1.7 | 0.00 | 0.02 | 0.02 | 80 | 1016.7 |
| 20260906021003 | 70 | 315 | 0.0 | 0.9 | 0.00 | 0.02 | 0.02 | 80 | 1016.8 |
| 20260906020503 | 71 | 315 | 0.0 | 0.9 | 0.00 | 0.02 | 0.02 | 79 | 1016.8 |
| 20260906020003 | 71 | 316 | 0.0 | 1.7 | 0.00 | 0.02 | 0.02 | 79 | 1016.8 |
| 20260906015503 | 72 | 316 | 0.9 | 1.7 | 0.00 | 0.02 | 0.02 | 79 | 1016.8 |
| 20260906015004 | 72 | 316 | 0.0 | 1.7 | 0.00 | 0.02 | 0.02 | 78 | 1016.7 |
| 20260906014503 | 72 | 316 | 0.0 | 1.7 | 0.00 | 0.02 | 0.02 | 78 | 1016.6 |
| 20260906014003 | 72 | 318 | 0.9 | 3.5 | 0.00 | 0.02 | 0.02 | 77 | 1016.4 |
| 20260906013503 | 72 | 314 | 1.7 | 3.5 | 0.00 | 0.02 | 0.02 | 76 | 1016.5 |
| 20260906013003 | 72 | 307 | 1.7 | 3.5 | 0.00 | 0.02 | 0.02 | 76 | 1016.6 |
| 20260906012503 | 73 | 313 | 2.6 | 7.0 | 0.00 | 0.02 | 0.02 | 75 | 1016.4 |
| 20260906012003 | 73 | 314 | 2.6 | 7.0 | 0.00 | 0.02 | 0.02 | 75 | 1016.3 |
| 20260906011503 | 73 | 313 | 2.6 | 7.8 | 0.00 | 0.02 | 0.02 | 75 | 1016.2 |
| 20260906011003 | 73 | 317 | 2.6 | 8.7 | 0.00 | 0.02 | 0.02 | 74 | 1016.2 |
| 20260906010503 | 73 | 320 | 2.6 | 8.7 | 0.00 | 0.02 | 0.02 | 73 | 1016.3 |
| 20260906010004 | 73 | 328 | 2.6 | 7.0 | 0.00 | 0.02 | 0.02 | 73 | 1016.2 |
| 20260906005503 | 73 | 336 | 2.6 | 8.7 | 0.00 | 0.02 | 0.02 | 72 | 1016.1 |
| 20260906005003 | 73 | 342 | 2.6 | 8.7 | 0.00 | 0.02 | 0.02 | 72 | 1016.2 |
| 20260906004503 | 73 | 340 | 1.7 | 7.0 | 0.00 | 0.02 | 0.02 | 71 | 1016.2 |
| 20260906004003 | 73 | 334 | 1.7 | 7.0 | 0.00 | 0.02 | 0.02 | 70 | 1016.1 |
| 20260906003503 | 74 | 332 | 2.6 | 6.1 | 0.00 | 0.02 | 0.02 | 70 | 1016.0 |
| 20260906003003 | 74 | 320 | 2.6 | 7.0 | 0.00 | 0.02 | 0.02 | 70 | 1016.0 |
| 20260906002503 | 74 | 324 | 2.6 | 7.8 | 0.00 | 0.02 | 0.02 | 69 | 1016.0 |
| 20260906002003 | 74 | 333 | 1.7 | 7.8 | 0.00 | 0.02 | 0.02 | 68 | 1015.9 |
| 20260906001503 | 74 | 308 | 1.7 | 5.2 | 0.00 | 0.02 | 0.02 | 68 | 1015.9 |
| 20260906001024 | 74 | 312 | 1.7 | 5.2 | 0.00 | 0.02 | 0.02 | 67 | 1015.7 |
| 20260906000503 | 74 | 310 | 1.7 | 5.2 | 0.00 | 0.02 | 0.02 | 67 | 1015.7 |
| 20260906000003 | 75 | 297 | 0.9 | 3.5 | 0.00 | 0.02 | 0.02 | 66 | 1015.7 |
| 20260905235503 | 75 | 316 | 0.9 | 3.5 | 0.00 | 0.02 | 0.02 | 65 | 1015.6 |
| 20260905235003 | 76 | 317 | 1.7 | 3.5 | 0.00 | 0.02 | 0.02 | 65 | 1015.6 |
| 20260905234503 | 76 | 316 | 1.7 | 4.3 | 0.00 | 0.02 | 0.02 | 63 | 1015.6 |
| 20260905234003 | 76 | 347 | 1.7 | 7.8 | 0.00 | 0.02 | 0.02 | 62 | 1015.6 |
| 20260905233503 | 77 | 350 | 1.7 | 7.8 | 0.00 | 0.02 | 0.02 | 62 | 1015.7 |
| 20260905233003 | 77 | 349 | 2.6 | 7.0 | 0.00 | 0.02 | 0.02 | 61 | 1015.7 |
| 20260905232503 | 78 | 1 | 2.6 | 7.8 | 0.00 | 0.02 | 0.02 | 61 | 1015.8 |
| 20260905232003 | 78 | 357 | 1.7 | 7.8 | 0.00 | 0.02 | 0.02 | 60 | 1015.8 |
| 20260905231503 | 79 | 336 | 2.6 | 7.8 | 0.00 | 0.02 | 0.02 | 60 | 1015.7 |
| 20260905231003 | 79 | 330 | 2.6 | 7.8 | 0.00 | 0.02 | 0.02 | 58 | 1015.7 |
| 20260905230606 | 80 | 339 | 2.6 | 8.7 | 0.00 | 0.02 | 0.02 | 58 | 1015.7 |
| 20260905230003 | 80 | 1 | 2.6 | 8.7 | 0.00 | 0.02 | 0.02 | 56 | 1015.7 |
| 20260905225503 | 80 | 352 | 2.6 | 7.0 | 0.00 | 0.02 | 0.02 | 55 | 1015.6 |
| 20260905225003 | 80 | 336 | 2.6 | 7.8 | 0.00 | 0.02 | 0.02 | 55 | 1015.7 |
| 20260905224503 | 81 | 325 | 3.5 | 7.8 | 0.00 | 0.02 | 0.02 | 55 | 1015.8 |
| 20260905224003 | 81 | 308 | 3.5 | 7.8 | 0.00 | 0.02 | 0.02 | 55 | 1015.8 |
| 20260905223503 | 81 | 303 | 3.5 | 7.8 | 0.00 | 0.02 | 0.02 | 55 | 1015.7 |
| 20260905223003 | 81 | 327 | 3.5 | 9.6 | 0.00 | 0.02 | 0.02 | 55 | 1015.9 |
| 20260905222503 | 81 | 328 | 3.5 | 9.6 | 0.00 | 0.02 | 0.02 | 54 | 1015.8 |
| 20260905222003 | 81 | 298 | 4.3 | 10.4 | 0.00 | 0.02 | 0.02 | 56 | 1015.8 |
| 20260905221503 | 81 | 319 | 4.3 | 10.4 | 0.00 | 0.02 | 0.02 | 54 | 1015.8 |
| 20260905221003 | 82 | 351 | 3.5 | 8.7 | 0.00 | 0.02 | 0.02 | 54 | 1015.7 |
| 20260905220503 | 82 | 337 | 3.5 | 7.8 | 0.00 | 0.02 | 0.02 | 53 | 1015.7 |
| 20260905220003 | 82 | 326 | 3.5 | 7.8 | 0.00 | 0.02 | 0.02 | 54 | 1015.7 |
| 20260905215503 | 82 | 343 | 4.3 | 9.6 | 0.00 | 0.02 | 0.02 | 53 | 1015.7 |
| 20260905215003 | 82 | 350 | 4.3 | 10.4 | 0.00 | 0.02 | 0.02 | 52 | 1015.7 |
| 20260905214503 | 83 | 344 | 4.3 | 10.4 | 0.00 | 0.02 | 0.02 | 52 | 1015.7 |
| 20260905214003 | 83 | 335 | 3.5 | 8.7 | 0.00 | 0.02 | 0.02 | 52 | 1015.7 |
| 20260905213524 | 83 | 340 | 4.3 | 11.3 | 0.00 | 0.02 | 0.02 | 52 | 1015.6 |
| 20260905213003 | 83 | 345 | 4.3 | 11.3 | 0.00 | 0.02 | 0.02 | 51 | 1015.6 |
| 20260905212503 | 83 | 337 | 3.5 | 10.4 | 0.00 | 0.02 | 0.02 | 52 | 1015.6 |
| 20260905212003 | 83 | 340 | 3.5 | 7.8 | 0.00 | 0.02 | 0.02 | 53 | 1015.7 |
| 20260905211503 | 83 | 341 | 4.3 | 9.6 | 0.00 | 0.02 | 0.02 | 51 | 1015.8 |
| 20260905211003 | 83 | 330 | 4.3 | 12.2 | 0.00 | 0.02 | 0.02 | 50 | 1015.7 |
| 20260905210503 | 83 | 322 | 4.3 | 13.0 | 0.00 | 0.02 | 0.02 | 49 | 1015.7 |
| 20260905210003 | 83 | 331 | 4.3 | 13.0 | 0.00 | 0.02 | 0.02 | 48 | 1015.7 |
| 20260905205503 | 84 | 327 | 4.3 | 9.6 | 0.00 | 0.02 | 0.02 | 48 | 1015.7 |
| 20260905205003 | 84 | 325 | 3.5 | 9.6 | 0.00 | 0.02 | 0.02 | 50 | 1015.7 |
| 20260905204503 | 84 | 348 | 3.5 | 7.8 | 0.00 | 0.02 | 0.02 | 48 | 1015.7 |
| 20260905204003 | 84 | 359 | 4.3 | 11.3 | 0.00 | 0.02 | 0.02 | 49 | 1015.6 |
| 20260905203503 | 84 | 1 | 3.5 | 11.3 | 0.00 | 0.02 | 0.02 | 48 | 1015.7 |
| 20260905203003 | 84 | 7 | 2.6 | 7.8 | 0.00 | 0.02 | 0.02 | 50 | 1015.8 |
| 20260905202503 | 83 | 355 | 3.5 | 7.0 | 0.00 | 0.02 | 0.02 | 51 | 1015.8 |
| 20260905202003 | 83 | 321 | 3.5 | 8.7 | 0.00 | 0.02 | 0.02 | 52 | 1015.7 |
| 20260905201503 | 82 | 348 | 3.5 | 8.7 | 0.00 | 0.02 | 0.02 | 54 | 1015.7 |
| 20260905201003 | 82 | 30 | 3.5 | 7.8 | 0.00 | 0.02 | 0.02 | 57 | 1015.6 |
| 20260905200503 | 81 | 311 | 5.2 | 13.0 | 0.00 | 0.02 | 0.02 | 58 | 1015.7 |
| 20260905200003 | 80 | 291 | 7.0 | 13.9 | 0.00 | 0.02 | 0.02 | 55 | 1015.7 |
| 20260905195503 | 79 | 287 | 5.2 | 13.9 | 0.00 | 0.02 | 0.02 | 58 | 1015.6 |
| 20260905195004 | 79 | 289 | 4.3 | 11.3 | 0.00 | 0.02 | 0.02 | 58 | 1015.5 |
| 20260905194503 | 78 | 292 | 4.3 | 11.3 | 0.00 | 0.02 | 0.02 | 57 | 1015.4 |
| 20260905194003 | 78 | 290 | 5.2 | 11.3 | 0.00 | 0.02 | 0.02 | 58 | 1015.4 |
| 20260905193503 | 78 | 289 | 4.3 | 11.3 | 0.00 | 0.02 | 0.02 | 57 | 1015.4 |
| 20260905193003 | 77 | 303 | 2.6 | 9.6 | 0.00 | 0.02 | 0.02 | 59 | 1015.4 |
| 20260905192503 | 77 | 305 | 3.5 | 9.6 | 0.00 | 0.02 | 0.02 | 58 | 1015.5 |
| 20260905192024 | 77 | 306 | 3.5 | 9.6 | 0.00 | 0.02 | 0.02 | 58 | 1015.5 |
| 20260905191503 | 76 | 319 | 2.6 | 7.0 | 0.00 | 0.02 | 0.02 | 61 | 1015.5 |
| 20260905191003 | 76 | 326 | 2.6 | 7.8 | 0.00 | 0.02 | 0.02 | 62 | 1015.7 |
| 20260905190503 | 75 | 322 | 2.6 | 7.8 | 0.00 | 0.02 | 0.02 | 63 | 1015.6 |
| 20260905190024 | 75 | 292 | 1.7 | 7.8 | 0.00 | 0.02 | 0.02 | 63 | 1015.5 |
| 20260905185503 | 75 | 323 | 1.7 | 3.5 | 0.00 | 0.02 | 0.02 | 65 | 1015.4 |
| 20260905185003 | 74 | 352 | 1.7 | 3.5 | 0.00 | 0.02 | 0.02 | 67 | 1015.7 |
| 20260905184503 | 74 | 327 | 1.7 | 7.0 | 0.00 | 0.02 | 0.02 | 68 | 1015.6 |
| 20260905184003 | 74 | 324 | 2.6 | 7.0 | 0.00 | 0.02 | 0.02 | 69 | 1015.8 |
| 20260905183524 | 73 | 358 | 2.6 | 7.0 | 0.00 | 0.02 | 0.02 | 70 | 1015.9 |
| 20260905183024 | 72 | 2 | 2.6 | 7.0 | 0.00 | 0.02 | 0.02 | 71 | 1016.0 |
| 20260905182503 | 72 | 325 | 2.6 | 6.1 | 0.01 | 0.02 | 0.02 | 73 | 1016.1 |
| 20260905182003 | 71 | 305 | 3.5 | 8.7 | 0.02 | 0.02 | 0.02 | 75 | 1016.4 |
| 20260905181503 | 70 | 311 | 2.6 | 8.7 | 0.02 | 0.02 | 0.02 | 77 | 1016.6 |
| 20260905181003 | 69 | 312 | 2.6 | 8.7 | 0.02 | 0.02 | 0.02 | 79 | 1016.8 |
| 20260905180503 | 69 | 292 | 0.9 | 7.8 | 0.02 | 0.02 | 0.02 | 81 | 1017.1 |
| 20260905180024 | 69 | 239 | 0.9 | 2.6 | 0.02 | 0.02 | 0.02 | 85 | 1017.2 |
| 20260905175503 | 69 | 184 | 0.0 | 1.7 | 0.02 | 0.02 | 0.02 | 84 | 1017.0 |
| 20260905175003 | 69 | 186 | 0.9 | 3.5 | 0.02 | 0.02 | 0.02 | 84 | 1017.2 |
| 20260905174503 | 70 | 213 | 1.7 | 3.5 | 0.02 | 0.02 | 0.02 | 82 | 1017.2 |
| 20260905174003 | 70 | 278 | 2.6 | 7.0 | 0.02 | 0.02 | 0.02 | 81 | 1017.5 |
| 20260905173503 | 70 | 295 | 3.5 | 7.8 | 0.02 | 0.02 | 0.02 | 76 | 1017.9 |
| 20260905173003 | 71 | 313 | 3.5 | 12.2 | 0.02 | 0.02 | 0.02 | 77 | 1018.2 |
| 20260905172503 | 72 | 328 | 3.5 | 12.2 | 0.01 | 0.01 | 0.01 | 74 | 1018.5 |
| 20260905172003 | 73 | 334 | 3.5 | 11.3 | 0.00 | 0.00 | 0.00 | 71 | 1018.7 |
| 20260905171503 | 73 | 335 | 3.5 | 9.6 | 0.00 | 0.00 | 0.00 | 69 | 1018.8 |
| 20260905171003 | 74 | 328 | 4.3 | 10.4 | 0.00 | 0.00 | 0.00 | 67 | 1018.9 |
| 20260905170503 | 74 | 317 | 4.3 | 13.0 | 0.00 | 0.00 | 0.00 | 65 | 1019.2 |
| 20260905170003 | 75 | 319 | 4.3 | 13.0 | 0.00 | 0.00 | 0.00 | 64 | 1019.4 |
| 20260905165503 | 76 | 323 | 3.5 | 10.4 | 0.00 | 0.00 | 0.00 | 63 | 1019.2 |
| 20260905165003 | 76 | 334 | 4.3 | 14.8 | 0.00 | 0.00 | 0.00 | 62 | 1019.0 |
| 20260905164503 | 77 | 329 | 5.2 | 14.8 | 0.00 | 0.00 | 0.00 | 62 | 1019.0 |
| 20260905164003 | 78 | 332 | 6.1 | 15.6 | 0.00 | 0.00 | 0.00 | 63 | 1019.1 |
| 20260905163503 | 79 | 339 | 6.1 | 15.6 | 0.00 | 0.00 | 0.00 | 63 | 1019.2 |
| 20260905163003 | 80 | 326 | 5.2 | 11.3 | 0.00 | 0.00 | 0.00 | 67 | 1019.0 |
| 20260905162503 | 81 | 318 | 4.3 | 10.4 | 0.00 | 0.00 | 0.00 | 67 | 1018.7 |
| 20260905162024 | 81 | 319 | 3.5 | 10.4 | 0.00 | 0.00 | 0.00 | 65 | 1018.8 |
| 20260905161503 | 82 | 334 | 4.3 | 8.7 | 0.00 | 0.00 | 0.00 | 65 | 1018.5 |
| 20260905161003 | 82 | 329 | 5.2 | 13.9 | 0.00 | 0.00 | 0.00 | 63 | 1018.4 |
| 20260905160503 | 83 | 319 | 5.2 | 13.9 | 0.00 | 0.00 | 0.00 | 62 | 1018.2 |
| 20260905160003 | 83 | 312 | 4.3 | 13.9 | 0.00 | 0.00 | 0.00 | 63 | 1018.4 |
| 20260905155524 | 84 | 322 | 5.2 | 14.8 | 0.00 | 0.00 | 0.00 | 63 | 1018.4 |
| 20260905155003 | 83 | 328 | 5.2 | 14.8 | 0.00 | 0.00 | 0.00 | 63 | 1018.4 |
| 20260905154503 | 82 | 306 | 5.2 | 10.4 | 0.00 | 0.00 | 0.00 | 67 | 1018.7 |
| 20260905154024 | 82 | 295 | 5.2 | 10.4 | 0.00 | 0.00 | 0.00 | 66 | 1018.7 |
| 20260905153503 | 82 | 296 | 5.2 | 12.2 | 0.00 | 0.00 | 0.00 | 65 | 1018.4 |
| 20260905153003 | 83 | 312 | 4.3 | 10.4 | 0.00 | 0.00 | 0.00 | 64 | 1018.6 |
| 20260905152503 | 84 | 345 | 4.3 | 8.7 | 0.00 | 0.00 | 0.00 | 62 | 1018.6 |
| 20260905152003 | 84 | 353 | 4.3 | 8.7 | 0.00 | 0.00 | 0.00 | 63 | 1018.5 |
| 20260905151503 | 84 | 339 | 4.3 | 8.7 | 0.00 | 0.00 | 0.00 | 63 | 1018.4 |
| 20260905151003 | 83 | 321 | 3.5 | 8.7 | 0.00 | 0.00 | 0.00 | 65 | 1018.2 |
| 20260905150503 | 83 | 325 | 4.3 | 8.7 | 0.00 | 0.00 | 0.00 | 67 | 1018.2 |
| 20260905150003 | 83 | 316 | 3.5 | 8.7 | 0.00 | 0.00 | 0.00 | 64 | 1018.2 |
| 20260905145503 | 83 | 314 | 2.6 | 7.8 | 0.00 | 0.00 | 0.00 | 66 | 1018.1 |
| 20260905145024 | 82 | 313 | 3.5 | 10.4 | 0.00 | 0.00 | 0.00 | 67 | 1018.0 |
| 20260905144503 | 82 | 325 | 4.3 | 10.4 | 0.00 | 0.00 | 0.00 | 65 | 1018.2 |
| 20260905144025 | 82 | 344 | 4.3 | 9.6 | 0.00 | 0.00 | 0.00 | 65 | 1018.2 |
| 20260905143504 | 82 | 321 | 4.3 | 11.3 | 0.00 | 0.00 | 0.00 | 67 | 1018.2 |
| 20260905143003 | 82 | 312 | 3.5 | 11.3 | 0.00 | 0.00 | 0.00 | 65 | 1018.4 |
| 20260905142524 | 82 | 326 | 2.6 | 7.8 | 0.00 | 0.00 | 0.00 | 68 | 1018.3 |
| 20260905142003 | 82 | 327 | 3.5 | 7.8 | 0.00 | 0.00 | 0.00 | 67 | 1018.5 |
| 20260905141503 | 81 | 332 | 4.3 | 10.4 | 0.00 | 0.00 | 0.00 | 67 | 1018.4 |
| 20260905141003 | 82 | 334 | 4.3 | 10.4 | 0.00 | 0.00 | 0.00 | 66 | 1018.4 |
| 20260905140503 | 82 | 322 | 2.6 | 8.7 | 0.00 | 0.00 | 0.00 | 67 | 1018.3 |
| 20260905140004 | 82 | 319 | 2.6 | 5.2 | 0.00 | 0.00 | 0.00 | 67 | 1018.3 |
| 20260905135524 | 81 | 317 | 1.7 | 5.2 | 0.00 | 0.00 | 0.00 | 68 | 1018.1 |
| 20260905135003 | 81 | 342 | 1.7 | 3.5 | 0.00 | 0.00 | 0.00 | 71 | 1018.1 |
| 20260905134503 | 80 | 325 | 1.7 | 4.3 | 0.00 | 0.00 | 0.00 | 71 | 1018.2 |
| 20260905134024 | 80 | 306 | 1.7 | 4.3 | 0.00 | 0.00 | 0.00 | 73 | 1018.1 |
| 20260905133503 | 79 | 354 | 0.9 | 5.2 | 0.00 | 0.00 | 0.00 | 72 | 1018.1 |
| 20260905133003 | 79 | 340 | 1.7 | 5.2 | 0.00 | 0.00 | 0.00 | 74 | 1018.2 |
| 20260905132503 | 78 | 331 | 1.7 | 4.3 | 0.00 | 0.00 | 0.00 | 75 | 1018.2 |
| 20260905132003 | 78 | 329 | 1.7 | 5.2 | 0.00 | 0.00 | 0.00 | 77 | 1018.4 |
| 20260905131503 | 77 | 24 | 1.7 | 6.1 | 0.00 | 0.00 | 0.00 | 78 | 1018.4 |
| 20260905131003 | 76 | 34 | 1.7 | 6.1 | 0.00 | 0.00 | 0.00 | 81 | 1018.4 |
| 20260905130503 | 75 | 22 | 0.9 | 4.3 | 0.00 | 0.00 | 0.00 | 82 | 1018.4 |
| 20260905130003 | 74 | 43 | 0.9 | 4.3 | 0.00 | 0.00 | 0.00 | 84 | 1018.4 |
| 20260905125503 | 74 | 36 | 0.9 | 2.6 | 0.00 | 0.00 | 0.00 | 85 | 1018.5 |
| 20260905125003 | 73 | 35 | 0.9 | 3.5 | 0.00 | 0.00 | 0.00 | 86 | 1018.6 |
| 20260905124503 | 72 | 21 | 0.9 | 3.5 | 0.00 | 0.00 | 0.00 | 87 | 1018.6 |
| 20260905124045 | 72 | 33 | 0.9 | 3.5 | 0.00 | 0.00 | 0.00 | 89 | 1018.5 |
| 20260905123503 | 71 | 68 | 0.0 | 2.6 | 0.00 | 0.00 | 0.00 | 91 | 1018.5 |
| 20260905123003 | 71 | 102 | 0.0 | 1.7 | 0.00 | 0.00 | 0.00 | 91 | 1018.4 |
| 20260905122503 | 70 | 122 | 0.0 | 2.6 | 0.00 | 0.00 | 0.00 | 92 | 1018.4 |
| 20260905122024 | 70 | 140 | 0.9 | 2.6 | 0.00 | 0.00 | 0.00 | 92 | 1018.3 |
| 20260905121503 | 70 | 174 | 0.0 | 1.7 | 0.00 | 0.00 | 0.00 | 92 | 1018.2 |
| 20260905121003 | 70 | 174 | 0.0 | 1.7 | 0.00 | 0.00 | 0.00 | 92 | 1018.2 |
| 20260905120503 | 69 | 174 | 0.0 | 1.7 | 0.00 | 0.00 | 0.00 | 93 | 1018.1 |
| 20260905120045 | 69 | 174 | 0.0 | 1.7 | 0.00 | 0.00 | 0.00 | 92 | 1018.2 |
| 20260905115503 | 69 | 174 | 0.9 | 2.6 | 0.00 | 0.00 | 0.00 | 92 | 1018.2 |
| 20260905115003 | 68 | 174 | 0.9 | 2.6 | 0.00 | 0.00 | 0.00 | 92 | 1018.2 |
| 20260905114503 | 68 | 181 | 0.9 | 2.6 | 0.00 | 0.00 | 0.00 | 92 | 1017.9 |
| 20260905114003 | 68 | 182 | 0.9 | 2.6 | 0.00 | 0.00 | 0.00 | 92 | 1017.8 |
| 20260905113503 | 68 | 182 | 0.9 | 2.6 | 0.00 | 0.00 | 0.00 | 92 | 1017.8 |
| 20260905113003 | 68 | 182 | 0.9 | 1.7 | 0.00 | 0.00 | 0.00 | 91 | 1017.9 |
| 20260905112503 | 68 | 182 | 0.9 | 1.7 | 0.00 | 0.00 | 0.00 | 91 | 1017.8 |
| 20260905112003 | 68 | 182 | 0.9 | 1.7 | 0.00 | 0.00 | 0.00 | 91 | 1017.8 |
| 20260905111503 | 68 | 182 | 0.9 | 1.7 | 0.00 | 0.00 | 0.00 | 91 | 1017.8 |
| 20260905111003 | 67 | 182 | 0.9 | 1.7 | 0.00 | 0.00 | 0.00 | 91 | 1017.8 |
| 20260905110503 | 67 | 213 | 0.9 | 2.6 | 0.00 | 0.00 | 0.00 | 91 | 1017.7 |
| 20260905110003 | 67 | 218 | 0.9 | 2.6 | 0.00 | 0.00 | 0.00 | 91 | 1017.7 |
| 20260905105503 | 67 | 236 | 0.9 | 1.7 | 0.00 | 0.00 | 0.00 | 90 | 1017.7 |
| 20260905105003 | 67 | 236 | 0.9 | 1.7 | 0.00 | 0.00 | 0.00 | 90 | 1017.6 |
| 20260905104503 | 67 | 236 | 0.9 | 1.7 | 0.00 | 0.00 | 0.00 | 90 | 1017.6 |
| 20260905104003 | 67 | 236 | 0.9 | 2.6 | 0.00 | 0.00 | 0.00 | 90 | 1017.7 |
| 20260905103503 | 67 | 236 | 0.9 | 2.6 | 0.00 | 0.00 | 0.00 | 90 | 1017.7 |
| 20260905103024 | 67 | 236 | 0.9 | 2.6 | 0.00 | 0.00 | 0.00 | 90 | 1017.7 |
| 20260905102503 | 67 | 236 | 0.0 | 1.7 | 0.00 | 0.00 | 0.00 | 90 | 1017.7 |
| 20260905102003 | 67 | 236 | 0.9 | 1.7 | 0.00 | 0.00 | 0.00 | 90 | 1017.6 |
| 20260905101503 | 67 | 236 | 0.9 | 1.7 | 0.00 | 0.00 | 0.00 | 90 | 1017.6 |
| 20260905101003 | 67 | 236 | 0.9 | 1.7 | 0.00 | 0.00 | 0.00 | 90 | 1017.5 |
| 20260905100524 | 67 | 236 | 0.0 | 1.7 | 0.00 | 0.00 | 0.00 | 90 | 1017.6 |
| 20260905100003 | 67 | 236 | 0.0 | 1.7 | 0.00 | 0.00 | 0.00 | 90 | 1017.5 |